Regional Weather Roundup
Issued by NWS

Home | Current Version | Previous Version | Graphics & Text | Print | Product List | Glossary On
Versions: 1 2 3 4 5 6 7 8 9 10 11 12 13 14 15 16 17 18 19 20 21 22 23 24 25 26 27 28 29 30 31 32 33 34 35 36 37 38 39 40 41 42 43 44 45 46 47 48 49 50
000
ASUS43 KDMX 161106
RWRIA

WEATHER ROUNDUP FOR IOWA
NATIONAL WEATHER SERVICE DES MOINES IA
500 AM CST TUE JAN 16 2018

NOTE: "FAIR" INDICATES FEW OR NO CLOUDS BELOW 12,000 FEET WITH NO
SIGNIFICANT WEATHER AND/OR OBSTRUCTIONS TO VISIBILITY.

* - THESE STATIONS ARE NOT NWS STATIONS...THUS NOT UNDER NWS
QUALITY CONTROL.  THEY ALSO DO NOT REPORT WEATHER SUCH
AS PRECIPITATION OR FOG.

IAZ001>003-012>014-020>022-031>034-043>046-161200-
   NORTHWEST IOWA

CITY           SKY/WX    TMP DP  RH WIND       PRES   REMARKS
CARROLL *      FLURRIES  -4 -11  71 NW17      30.66R WCI -26
CHEROKEE *     CLOUDY    -4 -10  77 N16       30.69S WCI -26
DENISON *      CLOUDY    -4 -11  71 NW14      30.69S WCI -24
LE MARS *      CLOUDY    -2  -8  78 N13G21    30.72S WCI -21
ORANGE CITY *  MOCLDY    -2  -8  78 NW13G20   30.67S WCI -21
SHELDON *      CLOUDY    -8 -11  84 NW10      30.67S WCI -26
SIOUX CITY     CLOUDY    -2  -7  79 NW16      30.73F WCI -23
SPENCER        LGT SNOW  -6 -13  71 NW16      30.66S WCI -28
STORM LAKE *   FLURRIES  -6 -11  77 NW18      30.63S WCI -29
$$

IAZ055>058-069>071-079>083-090>094-161200-
   SOUTHWEST IOWA

CITY           SKY/WX    TMP DP  RH WIND       PRES   REMARKS
ATLANTIC *     CLOUDY    -2  -9  71 N17       30.68R WCI -24
AUDUBON *      FLURRIES  -4  -9  77 NW14G21   30.64S WCI -24
CLARINDA *     CLOUDY    -4 -11  71 N9        30.73R WCI -20
COUNCIL BLFS * FLURRIES  -2  -6  84 NW14G23   30.69R WCI -21
CRESTON *      FLURRIES  -4  -9  77 NW18      30.64R WCI -26
HARLAN  *      CLOUDY    -4  -9  77 NW16      30.72  WCI -25
LAMONI         CLOUDY    -5 -12  72 NW15      30.62S WCI -26
RED OAK *      CLOUDY    -4  -9  77 NW8       30.71R WCI -19
SHENANDOAH *   CLOUDY    -4  -9  77 NW5       30.74R WCI -15
$$

IAZ047>049-059>061-072>074-084-161200-
   CENTRAL IOWA

CITY           SKY/WX    TMP DP  RH WIND       PRES   REMARKS
AMES           LGT SNOW  -5 -10  79 NW14G26   30.63S WCI -25
ANKENY *       CLOUDY    -4 -11  71 NW17G23   30.66R WCI -26
BOONE *        CLOUDY    -6 -13  71 NW18      30.62R WCI -29
CHARITON *     FLURRIES  -6 -13  71 NW14      30.61S WCI -26
DES MOINES     FLURRIES  -3 -11  68 NW14G23   30.65R WCI -22
GRINNELL*      LGT SNOW  -4  -8  81 NW17      30.58S WCI -25
KNOXVILLE *    LGT SNOW  -4 -13  65 NW14      30.60S WCI -24
MARSHALLTOWN   LGT SNOW  -3  -8  79 NW16      30.59R WCI -24
NEWTON *       CLOUDY    -4  -9  77 NW17      30.61S HAZE    WCI -26
PELLA *        LGT SNOW  -4 -10  75 NW16      30.62S WCI -26
PERRY *        FLURRIES  -4 -11  73 NW13      30.67R WCI -23
$$

IAZ004>006-015-016-023>025-035-036-161200-
   NORTH CENTRAL IOWA

CITY           SKY/WX    TMP DP  RH WIND       PRES   REMARKS
ALGONA *       LGT SNOW  -6 N/A N/A N14G22    30.61S WCI -26
CLARION *      CLOUDY    -4  -9  77 NW20G26   30.62R HAZE    WCI -27
ESTHERVILLE    LGT SNOW  -7 -11  83 N20       30.64S FOG     WCI -31
FORT DODGE *   LGT SNOW  -6 -11  79 NW12      30.63F WCI -25
MASON CITY     CLOUDY    -5 -10  79 NW18      30.59S WCI -28
FOREST CITY *  LGT SNOW  -4  -8  84 N14G23    30.59S WCI -24
WEBSTER CITY * FLURRIES  -6 -13  71 NW14      30.62R WCI -26
IOWA FALLS *   FLURRIES  -2  -7  79 NW15      30.60S WCI -22
$$

IAZ007>011-017>019-026>030-037>042-050>054-066-161200-
   NORTHEAST IOWA

CITY           SKY/WX    TMP DP  RH WIND       PRES   REMARKS
CEDAR RAPIDS   LGT SNOW   0  -6  76 NW14      30.53R WCI -19
CHARLES CITY * FLURRIES   0  -6  78 NW14      30.56R WCI -19
CLINTON *      FLURRIES   1  -3  83 W17       30.50R WCI -19
DECORAH *      FLURRIES   5   1  85 NW12      30.50R WCI -11
DUBUQUE        CLOUDY     6   2  83 N14       30.45R WCI -11
MONTICELLO *   FLURRIES   3  -4  72 NW12      30.50S WCI -13
OELWEIN *      CLOUDY     3   1  92 NW15      30.53R WCI -15
WATERLOO       CLOUDY     0  -6  76 NW16      30.57R WCI -20
$$

IAZ064-065-067-068-078-161200-
   EAST CENTRAL IOWA

CITY           SKY/WX    TMP DP  RH WIND       PRES   REMARKS
DAVENPORT      FLURRIES N/A N/A N/A W14       30.52S
IOWA CITY      LGT SNOW   0  -8  69 NW13      30.57R WCI -18
MT. PLEASANT * FLURRIES  -6 -13  71 W12       30.57F WCI -24
MUSCATINE *    FLURRIES   0  -6  78 NW10      30.58S WCI -17
QUAD CITIES    LGT SNOW   1  -5  75 W13       30.52S WCI -17
$$

IAZ062-063-075>077-085>089-095>099-161200-
   SOUTHEAST IOWA

CITY           SKY/WX    TMP DP  RH WIND       PRES   REMARKS
BURLINGTON     CLEAR     -6 -13  71 NW8       30.56R WCI -21
FAIRFIELD *    CLOUDY    -6 -15  65 W14       30.58S WCI -26
FORT MADISON *   N/A     -6 -11  77 NW13      30.57S WCI -25
KEOKUK *       PTCLDY    -4 -11  71 NW12      30.58S WCI -22
OSKALOOSA *    LGT SNOW  -5 -11  77 NW16      30.61R WCI -27
OTTUMWA        CLOUDY    -5 -13  68 NW18      30.59S WCI -28
WASHINGTON *   FLURRIES  -2  -8  78 NW16      30.58S WCI -23
$$

ABBREVIATIONS USED IN REMARKS
   TC - TEMPERATURES IN CELSIUS
  WCI - WIND CHILL INDEX
   HX - HEAT INDEX
  VSB - VISIBILITY
$$




USA.gov is the U.S. government's official web portal to all federal, state and local government web resources and services.